FENGYUN 1C DEB

Satellite information

Favourite Embed

Satellite Type and Status

DEBRISIN ORBIT

Key statistics

Satellite FENGYUN 1C DEB at a glance.

Uptime

9555

Days in orbit

Revolutions

≈ 14.1

Per day

Orbit

SSO

Sun Synchronous Orbit

Inclination

98.7

Latest

Satellite identification and parameters

Extended collection of information and parameters for FENGYUN 1C DEB.

Object identification

Identified? True

Debris? True

Object name: FENGYUN 1C DEB

International designator: 1999-025AAP

Object number (NORAD): 30328

Object ID (CCSDS): 30328

Country: PEOPLES REPUBLIC OF CHINA (PRC)

Current information (Y/N): Y

RCS size: SMALL

Orbital parameters

Period: 101.956 minutes

Inclination: 98.6901 deg

SMA: 7229.39 km

Apoapsis: 854.182 km

Periapsis: 848.329 km

RAAN: 202.5288 deg

Eccentricy: 0.0004048

Argument of periapsis: 251.3521 deg

Mean anomaly: 227.5528 deg

Mean motion: 14.12375742 rev/day

Mean motion (dot): 0.00000129 rev/day2

B* drag term: 0.00009322 1/REarth

Two-line elements (TLE)

Creation date: July 6, 2025, 6:05 p.m.

Reference frame: TEME

Reference center: EARTH

Epoch: July 6, 2025, 2:53 p.m. UTC

TLE line 0: 0 FENGYUN 1C DEB

TLE line 1: 1 30328U 99025AAP 25187.62066634 .00000129 00000-0 93220-4 0 9999

TLE line 2: 2 30328 98.6901 202.5288 0004048 251.3521 227.5528 14.12375742950183

Live tracking on map

Real-time ground track for satellite FENGYUN 1C DEB.

In-orbit conjunctions

There are no conjunctions computed for FENGYUN 1C DEB, at the moment. Check back to stay up to date, as we update our databases every day.

Go to all conjunctions

Associated space launch

Chinese polar orbiting meteorological satellite

FENGYUN 1C DEB was lifted into orbit during the mission ‘Long March 4B | Feng Yun 1C’, on board a Long March 4B space rocket.

The launch took place on May 10, 1999, 1:33 a.m. from Launch Complex 7.

For more information about the launch, click the button.

Launch to space Long March 4B | Feng Yun 1C
Long March 4B | Feng Yun 1C

Agency: N/A

Status: Launch Successful

Launch date: May 10, 1999, 1:33 a.m. UTC

Rocket: Long March 4B

Launch pad: Launch Complex 7

Location: Taiyuan Satellite Launch Center, People's Republic of China

...

Latest news about this satellite

There are no fresh news available about this satellite. Check back as we update our databases every day.


Newsletter sign-up

Weekly statistics, charts and insights to help you stay on top of the space industry.